Torna al catalogo

DELTA 2 R/B(2)

AttivoGTO
NORAD 22098·ROCKET BODY·🇺🇸 United States

Lanciato Aug 31, 1992 da Cape Canaveral Space Force Station

Loading…

TLE

In scadenzaSource: Space-Track

Epoca: Sep 14, 2026, 10:15 UTC

1 22098U 92057C   26257.42749065 -.00000071  00000-0  00000-0 0  9992
2 22098  20.1476 275.3106 6762346 176.7821 356.9053  2.17559282270509

Traccia DELTA 2 R/B(2) in tempo reale con AllMySat

Download on the App Store